{"data":{"norad_id":65308,"intl_designator":"2025-187D","name":"HULIANWANG DIGUI-76","alt_names":[],"object_type":"PAYLOAD","status":"ACTIVE","operator":null,"country":"PRC","launch_date":"2025-08-25","launch_site_code":"WSC","launch_vehicle":null,"mission":null,"orbit_class":"UNKNOWN","rcs_meters":null,"size_class":null,"mass_kg":null,"dimensions":null,"purposes":[],"wikipedia_slug":null,"has_3d_model":false,"image_url":null,"decayed_at":null,"tle_current":{"epoch":"2026-05-25T03:46:56.849088Z","epoch_age_seconds":51609,"freshness":"FRESH","line1":"1 65308U 25187D   26145.15760242 -.00000094  00000+0  64358-4 0  9993","line2":"2 65308  50.0017 288.6030 0000531  93.4693 266.6240 13.29322841 36636","mean_motion":13.29322841,"eccentricity":5.31e-5,"inclination_deg":50.0017,"raan_deg":288.603,"arg_perigee_deg":93.4693,"mean_anomaly_deg":266.624,"bstar":6.4358e-5,"rev_number":3663,"period_min":108.32582993284,"perigee_km":1148.9187894295,"apogee_km":1149.7182052033,"semimajor_km":7527.4554973164,"source":"CELESTRAK","updated_at":"2026-05-25T13:38:05.299492Z"}}}